Location: Linz
(48.3300°N, 14.3000°E)
Time: 12:43:38
(UTC+02:00)

YUBILEINY - Pass Details

Date: 21 February 2019
Orbit: 1478 x 1508 km, 82.5° (Epoch: 23 October)

Event Time Altitude Azimuth Distance (km) Brightness Sun altitude
Rises 02:30:20 0° 120° (ESE) 4,592 ? -43.1°
Reaches altitude 10° 02:35:02 10° 97° (E) 3,619 ? -42.6°
Maximum altitude 02:38:57 14° 70° (ENE) 3,317 ? -42.1°
Drops below altitude 10° 02:42:52 10° 43° (NE) 3,633 ? -41.6°
Sets 02:47:34 0° 20° (NNE) 4,622 ? -40.9°
